Tracking 29892 objects as of 21-Nov-2024
HD Live streaming from Space Station
objects crossing your sky now

ARIANE 44LP DEB

Track ARIANE 44LP DEB now!


NORAD ID: 41118
Int'l Code: 1991-015Q
Perigee: 670.7 km
Apogee: 28,720.4 km
Inclination: 4.0 °
Period: 507.2 minutes
Semi major axis: 21066 km
RCS: Unknown
Launch date: March 2, 1991
Source: France (FR)
Launch site: FRENCH GUIANA (FRGUI)

Note: This is SATELLITE DEBRIS
Your satellite tracking list
Your tracking list is empty




NASA's NSSDC Master Catalog

Two Line Element Set (TLE):
1 41118U 91015Q   24304.16172130  .00000394  00000-0  59586-2 0  9996
2 41118   4.0314  44.4507 6657387 296.1264   7.0647  2.83930272113404
Source of the keplerian elements: AFSPC